Tracking 29892 objects as of 21-Nov-2024
HD Live streaming from Space Station
objects crossing your sky now

WESTFORD NEEDLES

Track WESTFORD NEEDLES now!
10-day predictions
WESTFORD NEEDLES is classified as:


NORAD ID: 2362
Int'l Code: 1963-014M
Perigee: 1,071.1 km
Apogee: 5,954.5 km
Inclination: 85.3 °
Period: 163.0 minutes
Semi major axis: 9883 km
RCS: 0.2493 m2 (medium)
Launch date: May 9, 1963
Source: United States (US)
Launch site: AIR FORCE WESTERN TEST RANGE (AFWTR)
Your satellite tracking list
Your tracking list is empty




NASA's NSSDC Master Catalog

Two Line Element Set (TLE):
1  2362U 63014M   24323.55994176  .00002794  00000-0  35668-1 0  9998
2  2362  85.3102  75.4321 2470410 357.1659   1.7179  8.83519238955821
Source of the keplerian elements: AFSPC